Regional Weather Roundup
Issued by NWS Charleston, SC

Current Version | Previous Version | Text Only | Print | Product List | Glossary Off
Versions: 1 2 3 4 5 6 7 8 9 10 11 12 13 14 15 16 17 18 19 20 21 22 23 24 25 26 27 28 29 30 31 32 33 34 35 36 37 38 39 40 41 42 43 44 45 46 47 48 49 50

000
ASUS42 KCHS 301510
RWRCHS
REGIONAL WEATHER ROUNDUP
NATIONAL WEATHER SERVICE CHARLESTON SC
1100 AM EDT THU OCT 30 2014

NOTE: "FAIR" INDICATES FEW OR NO CLOUDS BELOW 12,000 FEET WITH NO
SIGNIFICANT WEATHER AND/OR OBSTRUCTIONS TO VISIBILITY.

NOT ALL STATIONS ARE QUALITY CONTROLLED BY THE NATIONAL
WEATHER SERVICE. USE DATA WITH CAUTION...ESPECIALLY
DEWPOINT OBSERVATIONS.

SCZ027-030-031-034>040-042>050-301600-
...SOUTH CAROLINA...

CITY           SKY/WX    TMP DP  RH WIND       PRES   REMARKS
N CHARLESTON   SUNNY     68  53  58 N10       29.99F
WATERFRONT PRK   N/A     64 N/A N/A N12         N/A
FORT JOHNSON   NOT AVBL
JOHNS ISLAND   SUNNY     66  59  77 NE8       30.00S
PINOPOLIS      NOT AVBL
MONCKS CORNER  FAIR      66  57  72 N7        30.01S
SUMMERVILLE    FAIR      64  54  68 N10       30.02S
BEAUFORT MCAS  MOSUNNY   64  56  75 NE6       29.98S
BEAUFORT ARPT  FAIR      64  55  72 NE10      30.00S
HILTON HEAD IS PTSUNNY   64  59  82 N14       30.00S
GEORGETOWN     NOT AVBL
WALTERBORO     SUNNY     66  46  48 NE10      30.02S
ORANGEBURG     SUNNY     65  44  46 NE14      30.03S
BARNWELL       FAIR      66  46  48 NE8       30.04S
AIKEN          FAIR      64  46  52 N16       30.07F
MANNING        FAIR      64  52  63 NE9       30.02S
KINGSTREE      NOT AVBL
COLUMBIA       SUNNY     66  41  40 N10       30.05S
SUMTER         SUNNY     64  47  53 NE16      30.02F
FLORENCE       SUNNY     64  48  56 NE16G22   30.03S
MYRTLE BEACH   CLOUDY    61  54  77 N14       30.00S
N MYRTLE BEACH CLOUDY    60  57  89 NE13      30.00S

$$

GAZ063-065-086>088-099>101-113>116-118-119-134-136>141-150-301600-
...GEORGIA...

CITY           SKY/WX    TMP DP  RH WIND       PRES   REMARKS
SAVANNAH ARPT  CLOUDY    68  61  78 N6        30.00S
HUNTER AAF     CLOUDY    68  62  81 NW8       29.97F
FORT STEWART   PTSUNNY   66  59  77 NW7       29.99S
STATESBORO     NOT AVBL
SYLVANIA       SUNNY     71  58  64 E9        30.03S
CLAXTON        CLOUDY    64  59  82 CALM      30.02S
THOMSON        SUNNY     64  53  66 NE9       30.11R
AUGUSTA-BUSH   SUNNY     66  46  48 NE10      30.04F
AUGUSTA-DANIEL SUNNY     66  42  41 N12       30.05F
SWAINSBORO     FAIR      66  55  68 MISG      30.04S
VIDALIA        PTSUNNY   63  55  77 CALM      30.03S
ALMA           MOSUNNY   62  49  62 N6        30.01F
WAYCROSS       CLOUDY    68  57  68 N7        30.01S
JESUP          FAIR      66  59  77 N5        30.01S
BRUNSWICK      MOSUNNY   72  61  68 N5        30.00S
SAINT SIMONS   SUNNY     72  62  71 N5        29.99S

$$

SCZ027-028-034-036>038-045-046-048>050-GAZ119-141-301600-
...LAKE AND SUPPLEMENTAL COASTAL OBSERVATIONS...

STATION/POSITION TIME  TEMP    WIND        PRES    WAVE   SWELL
                       AIR SEA DIR/SP/G            HT/PER HT/PER/DIR
                 (UTC) (F)     (DEG/KT/KT) (MB)    (FT/S) (FT/S/D)
UPR LAKE MARION  NOT AVBL
WINYAH BAY       1400   60      10/  6     1015.0S
LAKE MURRAY      1400   61      20/  3/  7 1017.3S
ACE BASIN NERRS  1400   63      30/  5     1015.0S
FORT PULASKI     1500   67     340/  5/  6 1015.7S
SAPELO ISLAND    NOT AVBL

$$

ANZ835-935-AMZ111-154-330-350-352-354-374-450-454-472-301600-
...C-MAN AND BUOY OBSERVATIONS...

STATION/POSITION TIME  TEMP    WIND        PRES    WAVE   SWELL
                       AIR SEA DIR/SP/G            HT/PER HT/PER/DIR
                 (UTC) (F)     (DEG/KT/KT) (MB)    (FT/S) (FT/S/D)
FOLLY BEACH CMAN 1500   65      10/  6/  9 1016.0S
BUOY 41004       1500   69 77   10/ 12/ 14 1014.2R   3/ 5   2/ 8
BUOY 41008       1500   69 74   10/ 10/ 12 1015.3R   2/ 3
5E ST. MARYS GA  1500      76                N/A     2/ 4
FRYING PAN BUOY  1500   67 72   30/ 16/ 19 1015.2R   3/ 4
BUOY 41025       1500   67      10/ 17/ 19 1014.5F   4/ 6
CAPE LOOKOUT NC  1500   63      10/ 15/ 18 1015.6R
BUOY 41002       1439   76 77  250/ 10/ 12 1014.9S   2/ 6   2/120/ 6
BUOY 41010       1500   78 81  310/  4/  6 1015.2F   4/ 7   3/110/ 7
BUOY 41012       NOT AVBL
ST AUGUSTINE FL  1500   71      10/  7/  7 1016.0F
CAPERS NEARSHORE 1400   63      30/ 14/ 16   N/A
FRIPP NEARSHORE  NOT AVBL


$$



USA.gov is the U.S. government's official web portal to all federal, state and local government web resources and services.